Total_Precipitation_Accumulation
2.08 2.10 2.09 2.00 1.93 1.83 1.80 1.93 2.21 2.17 1.77 1.44 1.39 1.45 1.55 1.59 1.73 1.59 1.36 1.56 1.61 1.56 1.61 1.66 1.69 1.68 1.70 1.85 2.04 2.24 2.36 2.42 2.49 2.58 2.65 2.71 2.87 3.21
1.82 1.86 1.90 1.90 1.95 1.96 1.95 1.97 2.11 2.31 2.11 1.58 1.43 1.46 1.55 1.58 1.72 1.55 1.44 1.65 1.55 1.49 1.48 1.48 1.46 1.45 1.48 1.55 1.69 1.86 2.02 2.12 2.20 2.35 2.51 2.65 2.80 2.93
1.79 1.70 1.66 1.71 1.84 1.91 2.00 2.03 2.07 2.18 2.18 1.70 1.41 1.37 1.45 1.45 1.44 1.35 1.34 1.36 1.32 1.45 1.38 1.34 1.35 1.34 1.34 1.39 1.48 1.59 1.72 1.87 2.03 2.22 2.38 2.51 2.62 2.71
1.83 1.79 1.70 1.68 1.81 1.89 2.00 2.03 1.98 1.93 1.96 1.78 1.46 1.33 1.31 1.27 1.25 1.21 1.18 1.17 1.16 1.38 1.38 1.33 1.32 1.30 1.25 1.27 1.34 1.42 1.52 1.62 1.74 1.88 2.05 2.15 2.27 2.43
1.79 1.85 1.80 1.81 1.84 1.82 1.82 1.81 1.76 1.68 1.63 1.60 1.43 1.28 1.25 1.24 1.28 1.21 1.12 1.08 1.05 1.19 1.26 1.26 1.32 1.34 1.29 1.28 1.32 1.36 1.36 1.37 1.41 1.44 1.59 1.76 1.91 2.07
1.77 1.82 1.82 1.83 1.78 1.76 1.75 1.69 1.64 1.63 1.59 1.57 1.49 1.35 1.26 1.22 1.29 1.29 1.22 1.10 1.05 1.01 1.14 1.16 1.23 1.33 1.35 1.25 1.15 1.15 1.15 1.23 1.33 1.41 1.46 1.54 1.62 1.71
1.84 1.78 1.73 1.82 1.81 1.75 1.72 1.70 1.73 1.80 1.77 1.73 1.62 1.45 1.27 1.19 1.17 1.12 1.16 1.14 1.09 1.03 1.08 1.08 1.07 1.05 1.10 1.19 1.19 1.16 1.20 1.25 1.37 1.48 1.55 1.58 1.62 1.68
1.80 1.69 1.62 1.70 1.68 1.72 1.75 1.75 1.83 1.93 2.02 1.94 1.73 1.47 1.16 1.00 1.00 1.13 1.28 1.39 1.33 1.03 1.03 0.98 0.93 1.00 0.98 1.01 1.18 1.22 1.23 1.26 1.30 1.39 1.46 1.49 1.51 1.57
1.59 1.50 1.43 1.38 1.44 1.29 1.43 1.58 1.61 1.73 1.80 1.74 1.59 1.27 1.08 1.01 1.18 1.35 1.35 1.36 1.20 1.01 1.14 1.21 1.05 1.00 0.95 1.04 1.21 1.12 1.12 1.16 1.21 1.30 1.34 1.35 1.38 1.45
1.31 1.28 1.25 1.20 1.20 1.26 1.30 1.39 1.32 1.26 1.22 1.17 1.16 1.11 1.10 1.16 1.34 1.55 1.57 1.53 1.29 1.11 1.15 1.33 1.15 1.05 0.96 1.00 1.15 1.09 1.10 1.15 1.19 1.26 1.33 1.32 1.32 1.36
1.11 1.10 1.13 1.08 1.26 1.47 1.48 1.45 1.27 1.14 1.16 1.20 1.25 1.29 1.41 1.45 1.48 1.64 1.77 1.87 1.70 1.32 1.14 1.19 1.09 1.03 1.01 1.00 1.04 1.13 1.07 1.06 1.07 1.10 1.17 1.23 1.26 1.38
1.04 1.03 1.17 1.17 1.36 1.54 1.49 1.50 1.38 1.15 1.12 1.16 1.15 1.14 1.13 1.22 1.41 1.42 1.66 2.04 1.86 1.54 1.12 1.20 1.23 1.31 1.53 1.14 0.98 0.97 0.98 1.04 1.07 1.09 1.12 1.14 1.21 1.26
1.02 0.98 1.00 1.23 1.38 1.48 1.48 1.36 1.40 1.42 1.31 1.28 1.25 1.19 1.17 1.18 1.21 1.18 1.32 1.86 2.16 1.77 1.16 1.58 1.81 1.52 1.69 1.37 1.06 0.98 0.96 1.04 1.12 1.13 1.21 1.27 1.33 1.43
1.05 0.90 0.94 1.20 1.31 1.38 1.34 1.36 1.52 1.51 1.36 1.40 1.40 1.32 1.26 1.24 1.20 1.20 1.21 1.31 1.52 1.63 1.35 1.79 2.34 1.92 1.99 1.67 1.19 1.05 1.02 1.10 1.29 1.33 1.32 1.51 1.62 1.67
1.08 1.06 1.08 1.14 1.14 1.17 1.26 1.31 1.30 1.25 1.30 1.40 1.37 1.22 1.11 1.11 1.15 1.23 1.26 1.24 1.25 1.24 1.29 1.48 1.88 1.91 2.08 1.97 1.45 1.16 1.20 1.23 1.33 1.47 1.53 1.62 1.72 1.77
1.26 1.26 1.20 1.14 1.11 1.08 1.13 1.13 1.10 1.15 1.26 1.31 1.25 1.15 1.10 1.13 1.18 1.24 1.37 1.41 1.47 1.32 1.17 1.18 1.34 1.71 1.90 1.55 1.54 1.44 1.36 1.49 1.46 1.55 1.68 1.71 1.78 1.90
1.44 1.36 1.26 1.17 1.15 1.12 1.08 1.05 1.09 1.19 1.26 1.20 1.25 1.27 1.23 1.20 1.19 1.20 1.34 1.46 1.57 1.36 1.20 1.09 1.10 1.24 1.44 1.55 1.58 1.36 1.34 1.46 1.59 1.74 1.91 1.88 1.79 1.93
1.56 1.41 1.22 1.09 1.03 1.01 1.03 1.04 1.05 1.10 1.15 1.24 1.31 1.33 1.36 1.35 1.31 1.26 1.33 1.45 1.44 1.25 1.18 1.16 1.22 1.41 1.48 1.42 1.38 1.38 1.39 1.49 1.56 1.65 1.86 2.03 1.91 1.77
1.42 1.25 1.11 1.05 1.00 0.98 0.99 1.02 1.03 1.00 1.09 1.25 1.33 1.35 1.37 1.37 1.37 1.38 1.39 1.42 1.36 1.22 1.17 1.19 1.39 1.83 1.92 1.41 1.11 1.24 1.59 1.70 1.64 1.69 1.78 1.94 2.06 1.84
1.17 1.07 1.01 1.00 1.06 1.09 1.10 1.13 1.14 1.12 1.16 1.22 1.27 1.28 1.34 1.42 1.42 1.36 1.35 1.41 1.42 1.30 1.20 1.13 1.24 1.71 2.20 1.90 1.54 1.32 1.41 1.75 1.99 2.10 1.91 1.77 1.83 1.78
1.02 0.99 0.99 1.03 1.11 1.20 1.24 1.25 1.29 1.31 1.28 1.31 1.30 1.30 1.35 1.48 1.42 1.27 1.29 1.37 1.47 1.41 1.29 1.07 0.97 1.20 1.66 2.02 1.84 1.34 1.35 1.48 1.83 2.35 2.34 2.18 1.98 1.73
1.01 1.02 1.05 1.10 1.19 1.28 1.32 1.35 1.36 1.32 1.34 1.36 1.33 1.32 1.36 1.48 1.48 1.37 1.36 1.42 1.39 1.32 1.22 1.07 1.03 1.20 1.57 1.96 1.70 1.27 1.24 1.29 1.38 1.53 2.00 2.61 3.16 3.08
1.11 1.12 1.14 1.19 1.24 1.29 1.31 1.30 1.30 1.26 1.28 1.38 1.42 1.38 1.42 1.48 1.42 1.43 1.42 1.43 1.44 1.37 1.32 1.30 1.25 1.28 1.35 1.46 1.54 1.37 1.23 1.22 1.26 1.34 1.62 1.85 2.08 2.26